Weather History for KCOM - November, 2012

Change the Weather History Date:

Monday, November 19, 2012

  Actual Average (KABI) Record (KABI)
Temperature  
Mean Temperature 63 °F 53 °F  
Max Temperature 76 °F 65 °F 85 °F (1996)
Min Temperature 50 °F 41 °F 22 °F (1937)
Degree Days  
Heating Degree Days 2 12  
Month to date heating degree days 169  
Since 1 July heating degree days 273  
Cooling Degree Days 0 0  
Month to date cooling degree days 15  
Year to date cooling degree days 2404  
Growing Degree Days 13 (Base 50)    
Moisture  
Dew Point 51 °F    
Average Humidity 67    
Maximum Humidity 86    
Minimum Humidity 43    
Precipitation  
Precipitation 0.00 in 0.04 in 1.65 in (1963)
Month to date precipitation 0.99  
Year to date precipitation 23.17  
Sea Level Pressure  
Sea Level Pressure 30.17 in    
Wind  
Wind Speed 4 mph (SSW)    
Max Wind Speed 12 mph    
Max Gust Speed 16 mph    
Visibility 10 miles    
Events      
T = Trace of Precipitation, MM = Missing Value Source: NWS Daily Summary

Daily Weather History Graph

Daily Weather History Graph

Search for Another Location

Airport or City:

Trip Planner

Search our weather history database for the weather conditions in past years. The results will help you decide how hot, cold, wet, or windy it might be!

Date:

Astronomy

Nov. 19, 2012 Rise Set
Actual Time 7:10 AM CST 5:36 PM CST
Civil Twilight 6:43 AM CST 6:02 PM CST
Nautical Twilight 6:14 AM CST 6:31 PM CST
Astronomical Twilight 5:45 AM CST 7:00 PM CST
Moon 12:21 PM CST (11/19) 11:54 PM CST (11/19)
Length of Visible Light 11h 18m
Length of Day
10h 25m
Waxing Crescent, 41% of the Moon is Illuminated
Nov 19
Waxing Crescent
Nov 20
First Quarter
Nov 28
Full
Dec 6
Last Quarter
Dec 13
New

Hourly Weather History & Observations

Time (CST) Temp. Dew Point Humidity Pressure Visibility Wind Dir Wind Speed Gust Speed Precip Events Conditions
12:15 AM 56.8 °F 49.1 °F 75% 30.19 in 10.0 mi SSW 3.5 mph - N/A   Mostly Cloudy
12:35 AM 55.8 °F 48.7 °F 77% 30.19 in 10.0 mi SSW 3.5 mph - N/A   Mostly Cloudy
12:55 AM 55.4 °F 48.6 °F 78% 30.18 in 10.0 mi SSW 4.6 mph - N/A   Overcast
1:15 AM 55.8 °F 48.9 °F 78% 30.18 in 10.0 mi Calm Calm - N/A   Overcast
1:35 AM 56.1 °F 49.1 °F 77% 30.18 in 10.0 mi Calm Calm - N/A   Overcast
1:55 AM 56.3 °F 49.1 °F 77% 30.18 in 10.0 mi Calm Calm - N/A   Overcast
2:15 AM 56.5 °F 49.1 °F 76% 30.18 in 10.0 mi Calm Calm - N/A   Overcast
2:35 AM 56.8 °F 49.3 °F 76% 30.18 in 10.0 mi Calm Calm - N/A   Overcast
2:55 AM 57.4 °F 49.3 °F 74% 30.18 in 10.0 mi South 3.5 mph - N/A   Overcast
3:15 AM 57.6 °F 49.3 °F 74% 30.17 in 10.0 mi South 5.8 mph - N/A   Overcast
3:35 AM 57.2 °F 48.9 °F 74% 30.17 in 10.0 mi South 4.6 mph - N/A   Overcast
3:55 AM 56.1 °F 48.4 °F 75% 30.17 in 10.0 mi South 3.5 mph - N/A   Scattered Clouds
4:15 AM 55.0 °F 48.0 °F 77% 30.17 in 10.0 mi South 5.8 mph - N/A   Scattered Clouds
4:35 AM 53.8 °F 47.5 °F 79% 30.17 in 10.0 mi South 4.6 mph - N/A   Scattered Clouds
4:55 AM 53.2 °F 47.3 °F 80% 30.17 in 10.0 mi Calm Calm - N/A   Clear
5:15 AM 52.5 °F 47.3 °F 82% 30.18 in 10.0 mi SSW 3.5 mph - N/A   Clear
5:35 AM 52.3 °F 47.3 °F 83% 30.18 in 10.0 mi South 4.6 mph - N/A   Clear
6:15 AM 51.1 °F 46.6 °F 85% 30.19 in 10.0 mi South 4.6 mph - N/A   Clear
6:35 AM 50.5 °F 46.4 °F 86% 30.20 in 10.0 mi South 3.5 mph - N/A   Scattered Clouds
6:55 AM 51.3 °F 46.8 °F 85% 30.20 in 10.0 mi Calm Calm - N/A   Overcast
7:15 AM 52.3 °F 47.5 °F 84% 30.20 in 10.0 mi South 4.6 mph - N/A   Overcast
7:35 AM 54.0 °F 48.6 °F 82% 30.20 in 10.0 mi South 5.8 mph - N/A   Overcast
7:55 AM 54.9 °F 49.1 °F 81% 30.21 in 10.0 mi South 6.9 mph - N/A   Overcast
8:15 AM 55.4 °F 49.5 °F 80% 30.22 in 10.0 mi South 5.8 mph - N/A   Overcast
8:55 AM 56.5 °F 50.2 °F 79% 30.22 in 10.0 mi South 8.1 mph - N/A   Overcast
9:15 AM 57.4 °F 50.5 °F 78% 30.22 in 10.0 mi South 8.1 mph - N/A   Overcast
9:35 AM 58.6 °F 51.1 °F 76% 30.23 in 10.0 mi South 11.5 mph - N/A   Overcast
9:55 AM 59.4 °F 51.3 °F 75% 30.23 in 10.0 mi South 10.4 mph - N/A   Overcast
10:15 AM 60.6 °F 51.6 °F 72% 30.23 in 10.0 mi South 9.2 mph - N/A   Overcast
10:35 AM 61.9 °F 52.2 °F 70% 30.22 in 10.0 mi SSW 5.8 mph - N/A   Overcast
10:55 AM 64.0 °F 52.9 °F 67% 30.22 in 10.0 mi SSW 10.4 mph - N/A   Mostly Cloudy
11:15 AM 65.5 °F 53.1 °F 64% 30.21 in 10.0 mi SW 9.2 mph - N/A   Scattered Clouds
11:35 AM 67.1 °F 53.4 °F 61% 30.21 in 10.0 mi SW 9.2 mph - N/A   Clear
11:55 AM 68.4 °F 53.6 °F 59% 30.20 in 10.0 mi SSW 10.4 mph 16.1 mph N/A   Clear
12:15 PM 69.1 °F 53.6 °F 58% 30.18 in 10.0 mi SW 9.2 mph - N/A   Clear
12:35 PM 70.5 °F 54.0 °F 56% 30.18 in 10.0 mi SW 9.2 mph - N/A   Clear
12:55 PM 71.1 °F 53.8 °F 54% 30.17 in 10.0 mi SW 11.5 mph - N/A   Clear
1:15 PM 72.3 °F 53.8 °F 52% 30.15 in 10.0 mi South 8.1 mph - N/A   Clear
1:35 PM 73.6 °F 54.0 °F 50% 30.14 in 10.0 mi SSW 8.1 mph - N/A   Clear
1:55 PM 74.3 °F 53.6 °F 48% 30.13 in 10.0 mi WSW 6.9 mph - N/A   Clear
2:15 PM 75.2 °F 53.8 °F 47% 30.12 in 10.0 mi South 5.8 mph - N/A   Clear
2:35 PM 75.7 °F 53.8 °F 46% 30.11 in 10.0 mi South 6.9 mph - N/A   Scattered Clouds
2:55 PM 76.5 °F 53.6 °F 45% 30.11 in 10.0 mi SSW 5.8 mph - N/A   Mostly Cloudy
3:15 PM 75.7 °F 53.1 °F 45% 30.11 in 10.0 mi SSW 6.9 mph - N/A   Overcast
3:35 PM 76.5 °F 53.1 °F 44% 30.11 in 10.0 mi SSW 8.1 mph - N/A   Overcast
3:55 PM 76.1 °F 52.7 °F 44% 30.11 in 10.0 mi South 8.1 mph 16.1 mph N/A   Scattered Clouds
4:15 PM 76.3 °F 52.5 °F 43% 30.11 in 10.0 mi SW 8.1 mph - N/A   Scattered Clouds
4:35 PM 75.0 °F 52.2 °F 45% 30.11 in 10.0 mi SSW 6.9 mph - N/A   Scattered Clouds
4:55 PM 74.3 °F 52.5 °F 46% 30.11 in 10.0 mi SSW 4.6 mph - N/A   Clear
5:15 PM 73.8 °F 52.5 °F 47% 30.11 in 10.0 mi Calm Calm - N/A   Clear
5:35 PM 72.9 °F 52.0 °F 48% 30.12 in 10.0 mi SSE 3.5 mph - N/A   Scattered Clouds
5:55 PM 70.5 °F 51.4 °F 51% 30.12 in 10.0 mi SE 4.6 mph - N/A   Scattered Clouds
6:15 PM 68.2 °F 50.5 °F 53% 30.12 in 10.0 mi Calm Calm - N/A   Scattered Clouds
6:35 PM 66.7 °F 50.9 °F 57% 30.13 in 10.0 mi Calm Calm - N/A   Clear
6:55 PM 66.0 °F 51.3 °F 59% 30.14 in 10.0 mi Calm Calm - N/A   Clear
7:15 PM 64.8 °F 51.4 °F 62% 30.14 in 10.0 mi Calm Calm - N/A   Clear
7:35 PM 64.0 °F 52.0 °F 65% 30.14 in 10.0 mi Calm Calm - N/A   Scattered Clouds
7:55 PM 64.2 °F 52.0 °F 64% 30.14 in 10.0 mi Calm Calm - N/A   Mostly Cloudy
8:15 PM 64.6 °F 52.0 °F 64% 30.15 in 10.0 mi East 3.5 mph - N/A   Mostly Cloudy
8:55 PM 63.7 °F 52.3 °F 67% 30.15 in 10.0 mi SSE 4.6 mph - N/A   Scattered Clouds
9:15 PM 63.3 °F 52.7 °F 68% 30.16 in 10.0 mi South 3.5 mph - N/A   Mostly Cloudy
9:35 PM 63.3 °F 53.2 °F 70% 30.16 in 10.0 mi Calm Calm - N/A   Scattered Clouds
9:55 PM 62.8 °F 53.2 °F 71% 30.16 in 10.0 mi Calm Calm - N/A   Scattered Clouds
10:15 PM 61.9 °F 52.9 °F 72% 30.15 in 10.0 mi South 3.5 mph - N/A   Scattered Clouds
10:35 PM 61.7 °F 53.1 °F 73% 30.15 in 10.0 mi Calm Calm - N/A   Clear
10:55 PM 61.3 °F 53.1 °F 74% 30.15 in 10.0 mi Calm Calm - N/A   Clear
11:15 PM 60.6 °F 52.5 °F 75% 30.15 in 10.0 mi SSE 3.5 mph - N/A   Clear
11:35 PM 59.9 °F 52.3 °F 76% 30.15 in 10.0 mi SSW 3.5 mph - N/A   Clear
11:55 PM 59.7 °F 52.7 °F 78% 30.15 in 10.0 mi SSW 4.6 mph - N/A   Clear